Location: McFarlands Corners
(41.4117°N, 81.3382°W)
Time: 02:41:03
(UTC+00:00)

Tiros 1 - Pass Details

Date: 24 February 2026
Orbit: 618 x 649 km, 48.4° (Epoch: 7 March)

Event Time Altitude Azimuth Distance (km) Brightness Sun altitude
Rises 18:45:16 0° 286° (WNW) 2,892 10.6 37.1°
Reaches altitude 10° 18:48:20 10° 265° (W) 1,979 10.1 36.9°
Maximum altitude 18:51:06 16° 227° (SW) 1,611 10.4 36.7°
Drops below altitude 10° 18:53:52 10° 189° (S) 1,969 10.9 36.5°
Sets 18:56:55 0° 168° (SSE) 2,870 11.1 36.2°
